Dewpoint
32 50 55 56 57 57 57 58 58 59 58 58 59 60 59 60 61 62 62 62 62 61 60 56 56 54 53 50 54 54 51 49 49 47 46 47 51 52 52 53 52 52 53
48 52 55 56 56 57 57 57 57 59 58 57 57 58 60 60 60 61 62 62 62 61 60 58 56 55 53 54 55 53 50 48 47 46 44 42 43 48 49 52 52 51 52
48 52 55 56 56 56 56 57 58 58 58 57 57 57 58 59 60 60 60 61 61 60 60 59 57 57 56 56 54 52 50 47 47 45 43 42 40 42 44 47 51 51 51
48 52 54 55 56 56 56 56 58 57 57 58 57 56 55 56 57 60 59 61 60 60 59 59 58 58 57 56 55 52 50 47 45 47 47 46 44 42 41 44 45 48 51
44 51 53 54 55 55 55 56 57 57 58 58 57 56 55 56 56 57 59 59 60 59 58 57 58 58 58 56 54 52 51 49 49 46 48 47 48 48 43 41 42 44 45
40 50 53 55 54 55 55 56 57 57 57 57 57 57 56 57 56 57 57 58 59 59 57 57 57 58 57 55 55 55 54 53 51 49 48 47 46 46 47 45 44 42 43
37 51 53 54 54 54 55 55 56 56 56 56 57 57 57 57 57 57 58 57 58 58 57 57 57 57 58 58 57 56 55 55 54 52 51 49 47 47 47 46 45 45 46
38 51 53 53 53 54 54 55 56 56 56 56 57 57 56 56 56 58 58 57 57 57 57 57 57 57 57 57 57 56 56 55 55 54 53 52 50 49 48 47 46 45 47
48 51 53 53 53 53 54 55 55 55 55 56 57 56 56 56 56 56 57 57 57 58 57 57 57 57 57 56 56 55 55 54 54 54 55 54 53 53 52 51 50 48 46
48 51 52 53 54 54 54 55 54 55 55 56 56 56 56 56 56 55 56 56 56 56 56 56 56 57 57 56 56 55 55 54 54 55 54 54 54 54 55 54 54 53 51
39 49 50 54 54 54 54 54 53 53 54 54 56 55 56 56 56 55 55 55 56 56 55 55 55 55 56 56 56 55 54 54 53 52 52 52 53 53 53 54 54 53 53
35 45 49 53 53 53 54 54 53 53 53 53 55 55 55 56 55 55 55 55 54 55 55 54 54 54 55 55 55 54 54 53 52 53 53 53 53 54 54 54 54 54 54
37 42 50 51 53 53 53 53 53 52 53 55 54 55 54 54 55 55 55 55 54 54 54 54 53 53 53 54 54 54 53 53 53 53 52 52 50 52 48 47 47 46 47
38 39 49 52 53 53 53 53 53 53 53 54 55 54 54 53 54 55 55 55 55 55 54 54 53 53 54 53 53 53 53 53 49 43 40 38 38 39 41 39 39 40 41
38 41 47 50 53 53 53 53 53 53 53 53 53 54 54 54 52 54 54 54 55 55 55 55 54 54 53 52 53 53 53 46 39 37 36 35 35 34 34 34 34 35 35
47 48 44 49 52 53 54 54 53 53 53 53 53 53 54 54 53 52 53 52 54 55 52 52 46 43 42 45 48 47 42 38 36 34 33 33 33 33 32 32 31 31 31
45 47 47 46 47 52 54 54 54 54 54 54 54 53 54 54 53 53 54 52 47 43 41 39 37 36 36 38 38 37 36 34 33 32 32 32 32 32 31 31 31 31 30
45 47 46 45 44 45 53 54 54 54 54 54 54 54 54 53 54 51 45 42 39 38 36 34 33 33 33 33 33 32 31 30 30 30 30 30 30 31 30 29 28 28 28
44 45 44 43 43 44 49 54 54 54 54 53 54 54 54 50 46 42 38 36 35 34 33 32 32 31 31 31 30 29 29 28 28 29 28 27 27 28 28 27 24 22 23
42 42 41 41 41 43 45 53 53 53 50 48 48 50 46 43 39 36 35 34 33 32 32 31 31 31 30 31 29 28 27 26 27 27 27 27 28 27 26 24 20 20 21
39 39 39 39 39 41 42 41 41 41 42 42 41 41 39 37 35 33 33 31 30 30 29 29 30 30 31 31 29 27 26 26 25 25 25 27 25 21 20 19 18 16 15
37 37 37 37 37 40 41 39 38 39 39 38 36 35 35 34 33 31 30 30 29 28 27 27 27 28 28 29 28 28 28 26 25 25 25 24 21 17 17 14 11 10 12
36 36 36 35 35 36 38 37 38 37 36 35 34 33 32 31 31 30 29 28 27 26 25 24 22 22 24 28 28 26 25 24 23 22 20 18 16 14 13 11 9 11 11
36 35 34 33 33 33 33 34 34 34 33 32 31 31 30 30 29 29 28 27 25 23 22 21 20 20 21 22 24 23 22 20 18 16 14 14 13 12 11 9 9 10 9
35 34 33 32 31 31 31 31 30 29 28 28 27 26 25 24 23 24 23 23 24 22 20 20 20 19 20 22 23 21 19 17 15 14 13 11 9 8 8 8 8 8 7
30 31 32 32 31 30 29 29 29 27 25 24 23 22 22 21 20 20 21 24 24 24 23 22 21 23 24 24 21 18 16 15 14 10 9 8 8 8 7 7 7 7 7
Wind_Speed
14 17 22 23 23 21 22 21 19 16 17 14 12 12 16 14 11 13 23 26 23 25 24 22 23 24 23 23 21 14 19 14 14 12 7 7 9 13 14 12 13 14 15
15 23 24 24 26 25 22 21 18 19 16 15 8 5 9 15 16 12 18 21 23 27 26 26 26 26 22 24 22 23 15 9 17 12 9 6 4 8 10 10 13 16 14
21 22 23 26 24 25 24 23 19 19 16 14 12 6 6 5 16 16 16 19 23 25 26 27 26 27 24 23 24 22 25 20 14 19 9 6 7 5 7 12 16 15 15
24 28 25 26 28 24 20 19 19 19 16 16 15 14 11 11 9 18 20 21 22 24 24 26 25 25 23 24 23 20 20 19 21 10 8 6 9 5 6 5 10 14 17
22 30 33 31 24 24 22 20 18 19 16 16 14 14 13 12 11 11 15 25 21 23 22 23 23 23 20 21 21 18 20 12 14 17 9 5 4 4 5 4 7 7 14
19 29 22 22 22 21 21 20 20 19 18 16 14 15 15 15 16 18 19 14 28 22 19 18 21 20 20 21 17 14 14 12 6 14 12 10 7 8 4 4 6 9 9
18 25 28 28 26 26 24 22 22 20 19 17 14 16 15 15 19 20 19 26 19 24 21 18 20 20 18 17 16 15 16 16 17 11 9 9 13 8 13 9 11 14 13
23 33 32 30 28 27 25 24 23 21 21 19 16 14 13 12 9 11 13 18 19 22 21 19 18 22 22 19 17 16 14 12 12 10 13 18 14 11 12 11 13 9 10
20 30 27 27 28 27 27 25 24 21 21 19 16 15 13 10 9 10 12 14 16 18 24 22 18 19 19 20 18 15 15 15 14 16 16 16 13 14 13 14 14 15 17
6 15 26 27 26 26 23 23 22 22 21 19 17 16 15 14 13 13 13 16 15 17 20 24 25 21 18 18 17 14 12 15 14 14 16 15 13 14 13 15 15 15 19
19 13 14 23 23 22 24 24 22 21 21 20 18 17 15 16 15 15 15 15 16 17 17 17 19 21 18 19 17 16 15 18 18 16 17 19 15 16 15 14 16 16 16
20 9 12 10 25 25 24 25 23 21 21 21 19 18 17 15 16 14 15 16 18 17 20 18 18 18 17 16 19 18 17 19 20 18 17 20 14 18 17 14 16 17 16
24 15 15 16 17 24 24 24 24 22 21 21 21 19 19 19 17 18 17 17 18 18 18 18 19 19 19 17 17 18 18 17 18 14 13 8 5 9 2 4 3 5 6
29 10 1 12 15 13 22 23 24 23 23 22 21 21 19 19 18 17 19 19 18 19 19 20 20 19 18 18 17 17 16 15 5 9 11 11 7 3 3 6 6 5 5
12 19 6 10 18 15 12 16 23 24 24 23 23 21 20 18 17 17 17 16 18 17 17 18 17 16 17 16 18 17 12 13 16 17 18 18 21 24 18 11 11 10 11
17 21 15 5 15 20 18 14 15 24 25 24 23 19 20 20 19 17 18 17 15 14 12 11 13 11 5 2 13 18 17 19 19 19 17 15 18 22 24 26 29 22 14
16 19 18 14 21 15 26 24 15 14 23 24 23 22 20 20 20 18 18 15 16 17 17 16 17 17 15 19 25 27 21 21 19 18 17 13 12 14 14 20 21 22 22
16 15 18 19 17 15 13 19 19 16 16 20 24 23 22 20 20 16 18 19 19 20 20 20 20 22 19 24 27 30 26 25 21 18 17 17 16 14 14 15 19 17 19
13 12 12 16 18 19 9 24 23 17 12 13 16 22 22 18 21 20 21 20 24 22 21 19 21 24 21 22 26 29 26 26 24 21 20 19 18 19 18 17 17 15 16
13 14 13 14 20 21 18 9 5 17 15 12 9 13 21 23 23 24 22 20 22 25 22 24 21 23 24 23 24 25 25 28 24 22 22 23 20 21 19 16 15 16 14
13 12 14 17 17 17 15 20 18 17 14 16 20 18 20 25 27 27 24 26 26 26 25 26 22 21 20 22 25 23 20 23 22 21 18 17 26 25 24 22 18 15 13
17 14 12 15 14 13 14 19 20 15 16 19 24 22 21 20 22 25 25 25 27 28 25 27 25 23 21 24 26 26 25 21 23 21 19 20 26 26 21 19 22 20 15
14 13 13 15 15 15 13 18 14 17 18 22 23 23 24 22 21 26 24 23 22 26 24 23 23 20 17 21 27 28 31 26 23 20 26 27 23 22 20 24 22 16 14
11 9 12 15 16 16 18 17 15 18 23 24 24 23 25 25 23 21 18 19 19 23 24 20 20 19 16 15 16 20 22 25 21 21 20 20 20 20 17 16 15 13 12
11 10 12 14 16 16 17 17 18 19 22 23 22 23 23 25 26 25 22 23 21 21 21 24 16 18 21 13 15 17 18 16 17 18 16 16 15 15 14 13 12 11 10
11 11 13 16 14 18 19 18 18 20 22 23 21 21 24 24 26 30 31 36 33 33 31 29 24 18 21 30 26 27 24 24 23 20 18 16 13 13 12 11 10 10 10
Wind_Direction
260 170 149 145 142 151 155 162 161 155 147 143 149 151 166 172 178 166 168 167 170 172 167 169 164 170 174 178 176 169 170 178 167 145 133 120 172 176 182 188 193 199 206
172 155 153 151 156 160 164 165 164 160 162 158 152 145 148 182 181 181 179 189 174 177 173 173 175 174 179 180 182 173 163 172 169 165 143 151 140 204 205 200 200 206 205
185 160 165 162 157 168 171 171 167 159 163 165 148 120 133 134 184 185 191 187 183 179 176 174 179 180 180 181 182 178 175 173 177 164 157 137 204 158 170 207 213 212 209
190 174 172 169 171 173 166 169 167 162 164 171 168 169 182 195 199 194 199 195 187 185 179 178 178 187 180 183 183 178 177 163 175 151 161 153 145 164 208 239 202 210 218
201 188 183 179 169 161 166 170 166 160 166 174 177 184 199 201 217 215 204 202 188 188 179 177 173 182 181 176 176 167 160 149 168 168 152 143 108 145 130 202 236 256 233
226 200 178 154 157 158 163 165 167 164 162 173 178 188 202 206 209 218 219 217 185 176 173 165 167 171 167 159 146 132 142 162 156 160 151 164 177 198 154 177 212 219 251
225 178 167 164 165 169 171 168 170 169 168 179 188 190 195 191 199 213 204 192 190 172 163 157 153 162 164 151 149 151 153 155 160 174 192 226 216 181 204 207 236 232 246
210 183 174 169 168 172 172 171 170 167 167 173 194 191 178 173 176 176 181 160 167 161 154 152 154 143 139 148 157 156 154 156 168 195 220 237 230 223 192 209 216 259 244
184 175 165 168 169 175 177 172 169 165 167 172 183 186 177 169 150 133 141 144 155 163 165 154 146 132 138 138 146 161 173 175 188 213 229 234 237 228 235 225 226 240 266
217 192 171 171 174 174 170 169 169 165 162 163 177 182 177 169 157 147 141 148 148 149 155 170 165 154 148 152 165 175 180 196 213 214 220 226 235 234 228 233 233 229 245
353 212 217 172 168 168 168 167 167 166 164 168 169 175 181 172 162 158 152 152 151 150 156 159 158 163 166 175 175 187 195 210 224 229 234 242 239 244 248 239 240 241 237
351 271 205 207 167 169 171 170 168 172 168 171 173 179 176 176 169 166 160 156 161 163 167 165 168 172 177 175 189 197 201 211 224 231 231 240 245 250 250 242 243 242 245
327 347 178 186 221 173 174 172 171 174 170 164 177 180 182 177 177 173 168 163 164 165 170 169 177 184 190 187 197 203 207 210 217 228 237 262 280 267 321 344 342 0 343
303 301 103 186 194 233 176 175 176 174 173 172 175 181 183 182 178 171 170 171 168 168 173 181 188 194 196 202 205 207 209 212 146 83 71 59 51 51 66 66 38 30 63
340 346 200 186 188 189 214 198 177 173 174 178 184 181 179 177 177 173 169 171 173 177 179 182 191 199 203 209 214 213 207 144 107 89 84 77 74 67 66 76 58 54 66
4 8 4 287 189 181 192 209 213 177 173 178 182 179 165 170 173 177 178 175 170 171 153 135 124 107 91 185 140 135 119 112 111 107 98 90 82 75 72 69 65 59 60
14 10 358 354 332 203 180 192 198 202 180 175 179 178 171 173 175 171 172 157 128 112 102 96 96 88 74 90 103 105 100 99 98 98 96 87 81 88 85 77 71 67 58
12 8 357 351 348 332 203 164 173 187 200 187 177 175 177 173 168 152 128 117 112 111 110 102 96 91 80 90 96 97 97 91 83 80 80 82 74 71 82 74 64 54 61
8 6 4 348 355 9 320 149 156 175 184 202 192 173 172 144 130 125 119 115 110 102 100 100 102 100 94 96 102 100 95 91 87 80 73 73 66 67 74 76 74 60 50
11 6 14 16 13 11 10 131 153 152 162 135 110 120 122 123 117 115 110 106 105 106 104 99 95 99 101 100 101 105 110 104 98 90 84 78 78 70 70 77 71 67 50
13 9 24 37 20 15 47 60 71 81 84 95 97 100 110 120 123 118 118 116 111 106 101 96 89 88 91 98 101 98 99 109 106 100 95 90 87 82 72 73 70 66 54
7 16 41 40 31 31 62 72 69 74 86 91 95 95 99 110 112 113 117 116 115 110 108 103 98 92 88 93 97 98 99 103 106 103 99 94 87 78 78 72 66 60 55
359 11 47 56 41 45 65 88 86 87 92 92 93 99 100 100 105 113 116 112 116 116 114 110 102 93 85 95 96 95 92 88 90 96 98 94 95 89 75 66 62 55 53
7 20 60 66 64 59 65 72 84 98 100 98 98 99 98 98 92 94 93 98 105 104 102 94 102 98 83 89 103 102 96 94 91 92 94 93 86 79 74 65 59 57 51
28 41 66 74 76 74 72 76 83 92 95 95 95 93 90 91 88 80 82 84 79 95 102 100 95 100 102 83 95 99 101 101 107 101 91 82 76 74 71 66 60 55 45
55 59 66 77 76 82 80 81 87 93 95 93 89 92 93 91 90 91 87 84 91 91 96 96 101 97 102 108 106 106 107 105 98 86 86 83 81 82 77 67 61 47 43